WB7UVH Weather Reports


Display with metric or nautical units.
time (UTC)temp
F
wind
direction
speed
MPH
gust
MPH
rain 1hr
in
rain 24hr
in
rain mn
in
humidity
%
barometer
mb
20260902021505 67 227 1.0 6.0 0.00 0.02 0.02 65 1015.5
20260902020004 67 229 0.0 0.0 0.00 0.02 0.02 68 1015.5
20260902014504 67 248 0.0 0.0 0.00 0.02 0.02 70 1015.4
20260902013006 67 264 0.0 0.0 0.00 0.02 0.02 71 1015.4
20260902011504 68 266 0.0 0.0 0.00 0.02 0.02 70 1015.3
20260902010005 68 266 0.0 0.0 0.00 0.02 0.02 69 1015.2
20260902004504 69 272 0.0 0.0 0.00 0.02 0.02 68 1015.0
20260902003004 69 275 0.0 0.0 0.00 0.02 0.02 68 1015.0
20260902001504 69 258 0.0 0.0 0.00 0.02 0.02 68 1015.0
20260902000004 69 245 0.0 0.0 0.00 0.02 0.02 68 1015.0
20260901234504 69 244 0.0 0.0 0.00 0.02 0.02 68 1015.1
20260901233005 69 207 0.0 0.0 0.00 0.02 0.02 67 1015.3
20260901231504 69 269 0.0 0.0 0.00 0.02 0.02 69 1015.4
20260901230005 69 245 0.0 0.0 0.00 0.02 0.02 68 1015.4
20260901224505 69 279 0.0 0.0 0.00 0.02 0.02 66 1015.5
20260901223006 70 264 0.0 0.0 0.00 0.02 0.02 66 1015.6
20260901221504 69 286 0.0 0.0 0.00 0.02 0.02 68 1015.7
20260901220005 68 258 0.0 0.0 0.00 0.02 0.02 71 1015.7
20260901214505 67 246 0.0 0.0 0.00 0.02 0.02 73 1015.8
20260901213005 66 255 0.0 0.0 0.00 0.02 0.02 72 1015.8
20260901211504 66 255 0.0 0.0 0.00 0.02 0.02 73 1015.9
20260901210004 67 257 0.0 0.0 0.00 0.02 0.02 73 1015.9
20260901204504 67 257 0.0 0.0 0.00 0.02 0.02 72 1015.9
20260901203004 66 258 0.0 0.0 0.00 0.02 0.02 73 1015.9
20260901201504 66 262 0.0 0.0 0.00 0.02 0.02 72 1015.9
20260901200004 66 238 0.0 0.0 0.00 0.02 0.02 72 1016.1
20260901194504 65 323 0.0 0.0 0.00 0.02 0.02 75 1016.3
20260901191504 65 224 0.0 0.0 0.00 0.02 0.02 75 1016.5
20260901190005 65 19 0.0 0.0 0.00 0.02 0.02 73 1016.5
20260901184504 65 246 0.0 0.0 0.00 0.02 0.02 73 1016.6
20260901183004 65 5 0.0 0.0 0.01 0.02 0.02 73 1016.7
20260901180004 64 320 0.0 0.0 0.02 0.02 0.02 75 1016.9
20260901174504 64 242 0.0 3.0 0.02 0.02 0.02 75 1017.0
20260901173004 64 231 0.0 1.0 0.01 0.01 0.01 75 1016.9
20260901170004 63 265 0.0 0.0 0.00 0.00 0.00 76 1016.7
20260901164505 63 249 0.0 0.0 0.00 0.00 0.00 76 1016.7
20260901163004 63 244 0.0 0.0 0.00 0.00 0.00 77 1016.6
20260901161505 62 237 0.0 0.0 0.00 0.00 0.00 77 1016.6
20260901160004 62 268 0.0 0.0 0.00 0.00 0.00 77 1016.6
20260901154505 62 274 0.0 0.0 0.00 0.00 0.00 77 1016.6
20260901151504 62 271 0.0 0.0 0.00 0.00 0.00 78 1016.5
20260901150004 62 271 0.0 0.0 0.00 0.00 0.00 78 1016.6
20260901144504 61 262 0.0 0.0 0.00 0.00 0.00 78 1016.4
20260901143005 61 261 0.0 0.0 0.00 0.00 0.00 78 1016.4
20260901140004 61 261 0.0 0.0 0.00 0.00 0.00 78 1016.4
20260901133005 61 255 0.0 0.0 0.00 0.00 0.00 77 1016.2
20260901131505 61 246 0.0 0.0 0.00 0.00 0.00 78 1016.2
20260901124505 61 263 0.0 0.0 0.00 0.00 0.00 78 1016.0
20260901123005 61 259 0.0 0.0 0.00 0.00 0.00 78 1016.1
20260901121505 61 241 0.0 0.0 0.00 0.00 0.00 78 1016.1
20260901120004 61 240 0.0 0.0 0.00 0.00 0.00 78 1016.1
20260901114504 61 296 0.0 0.0 0.00 0.00 0.00 78 1016.0
20260901111505 62 267 0.0 0.0 0.00 0.00 0.00 77 1015.7
20260901110005 62 305 0.0 0.0 0.00 0.00 0.00 76 1015.6
20260901104505 62 289 0.0 0.0 0.00 0.00 0.00 75 1015.6
20260901103004 63 293 0.0 5.0 0.00 0.00 0.00 75 1015.5
20260901101504 63 263 0.0 0.0 0.00 0.00 0.00 74 1015.3
20260901100005 63 272 0.0 0.0 0.00 0.00 0.00 73 1015.3
20260901094505 64 223 0.0 2.0 0.00 0.00 0.00 72 1015.2
20260901093005 64 324 0.0 0.0 0.00 0.00 0.00 72 1015.1
20260901091505 64 266 0.0 1.0 0.00 0.00 0.00 71 1014.9
20260901090004 65 239 0.0 0.0 0.00 0.00 0.00 69 1014.7
20260901084504 66 245 0.0 3.0 0.00 0.00 0.00 68 1014.6
20260901083004 66 245 0.0 0.0 0.00 0.00 0.00 68 1014.5
20260901081504 66 262 0.0 0.0 0.00 0.00 0.00 68 1014.5
20260901080004 67 281 0.0 0.0 0.00 0.00 0.00 66 1014.4
20260901074504 67 281 0.0 2.0 0.00 0.00 0.00 66 1014.2
20260901073004 68 242 0.0 1.0 0.00 0.00 0.00 65 1013.9
20260901071505 68 258 0.0 0.0 0.00 0.00 0.00 64 1013.7
20260901064504 69 259 0.0 0.0 0.00 0.00 0.00 63 1013.4
20260901063004 69 250 1.0 8.0 0.00 0.00 0.00 62 1013.2
20260901061505 69 294 0.0 0.0 0.00 0.00 0.00 63 1013.0
20260901060004 68 267 0.0 2.0 0.00 0.00 0.00 64 1012.6
20260901054504 68 259 1.0 6.0 0.00 0.00 0.00 64 1012.6
20260901053004 68 293 0.0 0.0 0.00 0.00 0.00 63 1012.3
20260901050004 69 292 0.0 0.0 0.00 0.00 0.00 62 1012.1
20260901044506 70 292 0.0 0.0 0.00 0.00 0.00 61 1012.1
20260901043005 70 292 0.0 0.0 0.00 0.00 0.00 60 1012.1
20260901041504 71 292 0.0 0.0 0.00 0.00 0.00 59 1011.9
20260901040004 72 292 0.0 0.0 0.00 0.00 0.00 58 1011.7
20260901033005 73 292 0.0 0.0 0.00 0.00 0.00 58 1011.3
20260901024504 76 292 0.0 0.0 0.00 0.00 0.00 56 1011.2
20260901023004 77 292 0.0 0.0 0.00 0.00 0.00 54 1011.1